Weather reports worldwide

Advertisment
Putbus, Germany (10093): temperature & dewpoint: 11.10.2018 06:00:00 - 17.10.2018 06:00:00 (CEST)Putbus, Germany (10093): temperature 5cm & temperature -5cm: 11.10.2018 06:00:00 - 17.10.2018 06:00:00 (CEST)Putbus, Germany (10093): temperature -20cm & temperature -100cm: 11.10.2018 06:00:00 - 17.10.2018 06:00:00 (CEST)Putbus, Germany (10093): wind speed & gusts: 11.10.2018 06:00:00 - 17.10.2018 06:00:00 (CEST)Putbus, Germany (10093): wind direction: 11.10.2018 06:00:00 - 17.10.2018 06:00:00 (CEST)Putbus, Germany (10093): reduced air pressure: 11.10.2018 06:00:00 - 17.10.2018 06:00:00 (CEST)Putbus, Germany (10093): visibility: 11.10.2018 06:00:00 - 17.10.2018 06:00:00 (CEST)Putbus, Germany (10093): sunshine duration: 11.10.2018 06:00:00 - 17.10.2018 06:00:00 (CEST)Putbus, Germany (10093): precipitation: 11.10.2018 06:00:00 - 17.10.2018 06:00:00 (CEST)
Date & Time tt [°C] td [°C] tt 5cm [°C] tt -5cm [°C] tt -20cm [°C] tt -100cm [°C] ff [km/h] ff [kn] fx [km/h] fx [kn] dd ppp [hPa] vv [km] sd [min] rr [mm]
17.10.2018 06:00:00 9,1 8,7 6,4 8,8 11,6 13,2 2 1 8 5 SSE 1019,4 2,5 0 0,0
17.10.2018 05:00:00 9,1 8,3 6,2 9,0 11,8 13,2 5 3 8 4 S 1019,3 2,6 0 0,0
17.10.2018 04:00:00 9,5 8,2 7,4 9,3 12,0 13,2 3 2 12 7 SE 1019,4 4,7 0 0,0
17.10.2018 03:00:00 10,9 8,7 7,3 9,6 12,2 13,2 3 2 9 5 ENE 1019,3 8 0 0,0
17.10.2018 02:00:00 10,0 8,3 7,2 9,9 12,5 13,2 2 1 4 2 N 1019,2 7 0 0,0
17.10.2018 01:00:00 10,5 8,5 7,4 10,3 12,7 13,2 0 0 8 4 N 1019,3 7 0 0,0
17.10.2018 00:00:00 12,1 8,9 8,1 10,7 12,9 13,2 5 3 9 5 WSW 1019,5 10 0 0,0
16.10.2018 23:00:00 12,3 9,1 8,7 11,1 13,2 13,2 4 2 7 4 SSW 1019,6 9 0 0,0
16.10.2018 22:00:00 12,7 9,4 10,3 11,4 13,5 13,2 4 2 6 3 SSW 1019,8 9 0 0,0
16.10.2018 21:00:00 12,1 9,2 8,6 11,9 13,8 13,2 4 2 5 3 S 1019,8 8 0 0,0
16.10.2018 20:00:00 12,0 9,3 8,8 12,7 14,1 13,2 3 2 4 2 SSE 1019,5 8 0 0,0
16.10.2018 19:00:00 12,6 9,5 9,8 13,9 14,3 13,2 3 2 8 5 WSW 1019,2 8 0 0,0
16.10.2018 18:00:00 15,1 9,9 13,0 15,7 14,2 13,2 7 4 9 5 SSE 1018,9 7 37 0,0
16.10.2018 17:00:00 19,1 10,7 18,5 17,3 14,0 13,2 3 2 8 4 S 1018,4 9 60 0,0
16.10.2018 16:00:00 19,1 10,1 20,5 18,2 13,5 13,2 5 3 11 6 S 1018,3 11 60 0,0
16.10.2018 15:00:00 21,3 8,7 23,0 18,0 12,9 13,2 7 4 13 7 WSW 1018,4 14 60 0,0
16.10.2018 14:00:00 20,3 7,8 22,4 17,0 12,2 13,2 9 5 15 8 WSW 1018,4 12 60 0,0
16.10.2018 13:00:00 18,8 7,9 21,2 15,5 11,6 13,2 8 5 14 8 SSW 1018,6 10 60 0,0
16.10.2018 12:00:00 17,1 8,2 19,1 13,7 11,1 13,2 6 3 13 7 SSW 1018,6 10 60 0,0
16.10.2018 11:00:00 15,9 8,6 18,1 11,7 10,8 13,2 8 5 14 7 SSE 1018,2 13 60 0,0
16.10.2018 10:00:00 14,1 8,7 15,2 9,6 10,8 13,2 7 4 11 6 S 1018,1 13 60 0,0
16.10.2018 09:00:00 11,4 8,3 8,5 8,3 10,9 13,2 4 2 9 5 SSW 1017,9 9 39 0,0
16.10.2018 08:00:00 9,4 7,3 6,1 8,1 11,1 13,2 6 3 11 6 S 1017,4 9 0 0,0
16.10.2018 07:00:00 10,0 7,9 5,9 8,4 11,3 13,2 7 4 11 6 S 1017,1 9 0 0,0
16.10.2018 06:00:00 9,5 6,8 6,0 8,7 11,5 13,2 6 3 9 5 S 1016,9 10 0 0,0
16.10.2018 05:00:00 10,9 6,5 7,1 9,0 11,7 13,2 6 4 17 9 SSW 1016,7 12 0 0,0
16.10.2018 04:00:00 12,8 6,1 10,3 9,3 11,9 13,2 11 6 17 9 SW 1016,6 14 0 0,0
16.10.2018 03:00:00 12,3 6,7 8,1 9,6 12,1 13,2 6 3 16 9 SSW 1016,5 13 0 0,0
16.10.2018 02:00:00 12,6 8,0 10,6 9,7 12,3 13,2 9 5 16 9 S 1016,6 13 0 0,0
16.10.2018 01:00:00 13,8 6,5 10,4 10,2 12,5 13,3 9 5 17 9 SSW 1016,3 15 0 0,0
16.10.2018 00:00:00 14,3 7,0 12,0 10,6 12,7 13,3 12 7 22 12 SSW 1016,2 14 0 0,0
15.10.2018 23:00:00 14,5 7,4 11,7 10,8 13,0 13,3 10 6 21 11 S 1016,3 15 0 0,0
15.10.2018 22:00:00 14,8 7,5 12,1 11,3 13,2 13,3 10 5 19 10 S 1016,2 15 0 0,0
15.10.2018 21:00:00 15,0 7,6 12,4 11,8 13,5 13,3 11 6 22 12 S 1016,1 14 0 0,0
15.10.2018 20:00:00 15,1 8,2 12,4 12,3 13,8 13,3 11 6 18 10 S 1015,9 14 0 0,0
15.10.2018 19:00:00 14,9 9,0 11,1 13,3 13,9 13,3 11 6 21 12 S 1015,7 11 2 0,0
15.10.2018 18:00:00 16,7 8,5 15,0 14,8 13,9 13,3 14 7 25 13 S 1015,1 16 60 0,0
15.10.2018 17:00:00 18,0 8,6 18,1 16,1 13,7 13,3 7 4 18 10 S 1014,8 14 50 0,0
15.10.2018 16:00:00 17,5 8,9 17,1 17,3 13,3 13,3 9 5 22 12 SSE 1014,9 16 54 0,0
15.10.2018 15:00:00 18,4 8,4 20,9 17,3 12,8 13,3 11 6 23 12 SSE 1015,0 14 60 0,0
15.10.2018 14:00:00 17,7 7,6 19,7 16,2 12,2 13,3 8 5 24 13 SSE 1014,9 18 60 0,0
15.10.2018 13:00:00 17,2 7,2 19,3 14,8 11,7 13,3 13 7 30 16 S 1015,0 11 60 0,0
15.10.2018 12:00:00 16,0 7,9 17,7 13,2 11,3 13,3 16 8 27 14 S 1015,3 17 60 0,0
15.10.2018 11:00:00 14,7 7,7 16,0 11,4 11,0 13,3 15 8 27 15 S 1015,2 15 59 0,0
15.10.2018 10:00:00 14,2 7,5 15,0 9,8 11,0 13,3 15 8 29 16 S 1015,1 12 60 0,0
15.10.2018 09:00:00 12,7 8,1 11,2 8,7 11,1 13,3 12 6 22 12 S 1015,3 12 51 0,0
15.10.2018 08:00:00 11,3 7,9 8,1 8,3 11,3 13,3 8 5 19 11 SSE 1014,9 13 0 0,0
15.10.2018 07:00:00 11,7 7,9 9,4 8,4 11,5 13,2 9 5 17 9 SSE 1014,8 14 0 0,0
15.10.2018 06:00:00 11,1 8,2 6,7 8,8 11,7 13,2 9 5 17 9 SSE 1014,6 12 0 0,0
15.10.2018 05:00:00 11,9 8,4 8,0 9,2 11,9 13,2 9 5 22 12 SSE 1014,6 13 0 0,0
15.10.2018 04:00:00 13,1 8,5 10,8 9,5 12,1 13,2 12 7 21 11 S 1014,6 13 0 0,0
15.10.2018 03:00:00 13,0 9,1 9,9 9,7 12,3 13,2 13 7 22 12 S 1014,5 12 0 0,0
15.10.2018 02:00:00 13,7 9,2 11,4 9,8 12,5 13,2 11 6 19 11 S 1014,6 12 0 0,0
15.10.2018 01:00:00 13,3 9,4 9,4 10,1 12,7 13,2 11 6 18 10 S 1014,2 10 0 0,0
15.10.2018 00:00:00 13,2 9,7 8,7 10,3 13,0 13,2 10 5 16 9 S 1014,3 11 0 0,0
14.10.2018 23:00:00 13,4 9,9 9,0 10,8 13,3 13,2 8 4 14 8 S 1014,4 12 0 0,0
14.10.2018 22:00:00 14,3 9,3 9,2 11,3 13,6 13,2 9 5 16 9 S 1014,3 14 0 0,0
14.10.2018 21:00:00 14,1 9,1 8,6 11,9 13,9 13,2 6 3 13 7 S 1014,5 13 0 0,0
14.10.2018 20:00:00 15,6 9,4 9,6 12,7 14,2 13,2 6 3 11 6 S 1014,5 13 0 0,0
14.10.2018 19:00:00 15,9 9,9 11,4 13,8 14,4 13,2 5 3 14 8 S 1014,6 13 0 0,0
14.10.2018 18:00:00 17,3 9,6 14,8 15,5 14,4 13,2 9 5 19 10 S 1014,3 13 59 0,0
14.10.2018 17:00:00 18,4 10,5 18,8 17,0 14,2 13,2 9 5 21 11 S 1014,5 12 60 0,0
14.10.2018 16:00:00 19,4 9,9 20,6 17,7 13,7 13,2 9 5 24 13 S 1014,5 12 60 0,0
14.10.2018 15:00:00 19,1 10,2 20,9 17,5 13,2 13,2 11 6 31 17 S 1014,7 12 60 0,0
14.10.2018 14:00:00 17,5 10,4 19,9 16,6 12,7 13,2 12 6 29 16 SSE 1015,1 10 60 0,0
14.10.2018 13:00:00 17,3 10,8 20,2 15,3 12,2 13,2 12 7 27 14 SSE 1015,8 10 60 0,0
14.10.2018 12:00:00 16,0 10,0 17,6 13,8 11,7 13,2 13 7 28 15 SE 1016,3 9 60 0,0
14.10.2018 11:00:00 14,9 9,6 16,2 12,1 11,5 13,2 14 7 28 15 SSE 1017,0 7 60 0,0
14.10.2018 10:00:00 14,0 9,9 14,8 10,4 11,4 13,2 9 5 23 12 SE 1017,5 7 60 0,0
14.10.2018 09:00:00 12,8 9,9 11,2 9,3 11,6 13,2 11 6 21 12 SE 1017,8 6 54 0,0
14.10.2018 08:00:00 11,7 9,5 9,0 8,9 11,7 13,2 8 4 17 9 SE 1018,0 6 0 0,0
14.10.2018 07:00:00 11,5 9,7 8,8 9,0 12,0 13,2 8 4 16 8 SE 1018,3 6 0 0,0
14.10.2018 06:00:00 11,7 10,0 9,1 9,3 12,2 13,2 9 5 17 9 SSE 1018,5 6 0 0,0
14.10.2018 05:00:00 12,0 10,2 8,8 9,5 12,4 13,2 9 5 19 10 SSE 1018,8 6 0 0,0
14.10.2018 04:00:00 12,2 10,2 8,6 9,7 12,7 13,1 8 4 16 9 SSE 1019,3 6 0 0,0
14.10.2018 03:00:00 12,9 10,4 9,6 10,1 13,0 13,1 7 4 16 9 SSE 1020,1 6 0 0,0
14.10.2018 02:00:00 12,1 10,4 8,4 10,4 13,3 13,1 6 3 11 6 SSE 1020,4 4,6 0 0,0
14.10.2018 01:00:00 13,0 10,5 9,3 10,9 13,6 13,1 6 3 12 7 SSE 1021,0 7 0 0,0
14.10.2018 00:00:00 13,4 10,5 8,7 11,4 13,9 13,1 5 3 13 7 SSE 1021,2 7 0 0,0
13.10.2018 23:00:00 14,3 10,9 9,3 11,9 14,2 13,1 6 3 13 7 SSE 1021,4 7 0 0,0
13.10.2018 22:00:00 14,4 11,3 9,6 12,6 14,6 13,1 5 3 11 6 SSE 1021,8 7 0 0,0
13.10.2018 21:00:00 15,3 11,6 10,3 13,4 14,9 13,1 5 3 14 8 S 1021,9 8 0 0,0
13.10.2018 20:00:00 16,3 11,8 12,7 14,3 15,2 13,1 6 3 14 8 SE 1022,0 10 0 0,0
13.10.2018 19:00:00 16,9 12,2 13,0 15,5 15,3 13,1 6 3 13 7 SE 1021,8 8 7 0,0
13.10.2018 18:00:00 18,6 12,9 15,3 17,4 15,3 13,1 5 3 15 8 SE 1021,9 11 60 0,0
13.10.2018 17:00:00 20,9 13,0 21,4 18,9 15,0 13,1 7 4 15 8 SE 1022,0 16 60 0,0
13.10.2018 16:00:00 21,0 13,3 22,9 19,6 14,5 13,1 8 4 19 11 SSE 1022,5 6 60 0,0
13.10.2018 15:00:00 21,3 12,7 24,0 19,5 13,9 13,1 10 5 23 12 SSE 1022,8 14 60 0,0
13.10.2018 14:00:00 20,9 12,5 23,4 18,6 13,3 13,1 12 6 22 12 S 1023,4 15 60 0,0
13.10.2018 13:00:00 20,1 12,1 22,4 17,2 12,7 13,1 11 6 21 11 S 1023,7 10 60 0,0
13.10.2018 12:00:00 19,1 11,8 21,2 15,5 12,1 13,1 10 6 20 11 S 1024,1 8 60 0,0
13.10.2018 11:00:00 17,3 11,4 19,3 13,6 11,8 13,1 11 6 21 11 S 1024,0 6 60 0,0
13.10.2018 10:00:00 15,9 11,0 16,9 11,7 11,7 13,1 13 7 20 11 S 1024,1 6 60 0,0
13.10.2018 09:00:00 14,7 10,9 13,8 10,3 11,7 13,1 9 5 16 9 S 1024,3 8 55 0,0
13.10.2018 08:00:00 13,7 10,5 11,0 10,0 11,8 13,1 8 5 16 9 S 1024,0 9 0 0,0
13.10.2018 07:00:00 14,3 10,4 12,2 9,9 12,0 13,1 11 6 18 10 S 1023,9 10 0 0,0
13.10.2018 06:00:00 13,0 10,6 9,3 9,9 12,2 13,0 7 4 16 9 S 1023,8 8 0 0,0
13.10.2018 05:00:00 13,7 10,6 10,9 10,2 12,3 13,0 8 5 15 8 S 1023,9 9 0 0,0
13.10.2018 04:00:00 13,6 10,7 10,6 10,4 12,5 13,1 9 5 16 9 S 1023,8 9 0 0,0
13.10.2018 03:00:00 14,2 10,7 11,0 10,6 12,7 13,1 11 6 16 9 S 1023,7 9 0 0,0
13.10.2018 02:00:00 14,4 10,7 12,0 10,8 13,0 13,1 11 6 18 10 S 1023,8 9 0 0,0
13.10.2018 01:00:00 12,9 11,0 9,5 11,0 13,3 13,0 9 5 13 7 S 1023,8 6 0 0,0
13.10.2018 00:00:00 14,2 11,2 9,9 11,5 13,5 13,0 8 4 16 8 S 1023,8 6 0 0,0
12.10.2018 23:00:00 14,1 11,3 10,9 11,9 13,8 13,0 10 5 16 9 S 1023,8 8 0 0,0
12.10.2018 22:00:00 15,4 11,5 12,0 12,5 14,2 13,0 10 5 17 9 S 1023,8 9 0 0,0
12.10.2018 21:00:00 14,9 11,7 11,1 13,0 14,5 13,0 9 5 16 8 S 1023,7 9 0 0,0
12.10.2018 20:00:00 14,9 12,0 11,2 13,8 14,8 13,0 7 4 12 6 S 1023,6 8 0 0,0
12.10.2018 19:00:00 15,4 11,9 11,7 15,2 15,0 13,0 4 2 13 7 SSE 1023,2 5 0 0,0
12.10.2018 18:00:00 18,7 11,9 16,6 17,3 15,0 13,0 8 5 14 7 S 1022,5 15 55 0,0
12.10.2018 17:00:00 20,5 11,7 20,5 19,0 14,6 13,0 5 3 15 8 S 1022,1 16 60 0,0
12.10.2018 16:00:00 20,9 11,7 21,8 19,7 14,1 13,0 9 5 19 10 S 1022,0 16 60 0,0
12.10.2018 15:00:00 20,6 11,6 22,2 19,4 13,4 13,0 10 5 19 11 S 1021,8 24 60 0,0
12.10.2018 14:00:00 19,6 11,5 21,6 18,2 12,7 13,0 12 6 26 14 S 1021,6 13 60 0,0
12.10.2018 13:00:00 18,2 11,4 20,1 16,6 12,0 13,0 13 7 26 14 S 1021,8 15 60 0,0
12.10.2018 12:00:00 16,9 10,8 18,6 14,6 11,4 13,0 11 6 23 12 S 1021,9 13 60 0,0
12.10.2018 11:00:00 15,7 10,5 17,2 12,5 11,1 13,0 13 7 24 13 S 1021,7 10 60 0,0
12.10.2018 10:00:00 14,3 10,4 15,2 10,4 11,0 13,0 13 7 25 13 S 1021,3 13 60 0,0
12.10.2018 09:00:00 13,0 10,3 11,0 8,9 11,1 13,0 11 6 21 11 S 1020,5 8 52 0,0
12.10.2018 08:00:00 11,4 10,1 8,8 8,4 11,3 13,0 9 5 18 10 S 1020,3 6 0 0,0
12.10.2018 07:00:00 11,2 10,0 6,9 8,7 11,6 13,0 7 4 16 9 SSE 1019,9 6 0 0,0
12.10.2018 06:00:00 11,7 10,3 8,1 9,1 11,8 13,0 7 4 17 9 SSE 1019,8 6 0 0,0
12.10.2018 05:00:00 12,7 10,6 10,5 9,5 12,0 13,0 11 6 17 9 S 1019,6 7 0 0,0
12.10.2018 04:00:00 12,5 10,9 8,8 10,0 12,2 13,0 6 4 15 8 SSE 1019,2 5 0 0,0
12.10.2018 03:00:00 13,3 10,9 10,6 10,4 12,4 13,0 7 4 18 10 SSE 1019,2 6 0 0,0
12.10.2018 02:00:00 14,4 11,1 11,7 10,8 12,6 13,0 10 5 23 13 SE 1019,3 7 0 0,0
12.10.2018 01:00:00 14,6 11,3 12,4 11,1 12,9 13,0 7 4 22 12 SSE 1019,3 7 0 0,0
12.10.2018 00:00:00 15,1 11,4 12,9 11,3 13,1 12,9 9 5 21 11 SE 1019,3 8 0 0,0
11.10.2018 23:00:00 16,2 11,0 14,2 11,7 13,3 12,9 9 5 28 15 SSE 1019,0 10 0 0,0
11.10.2018 22:00:00 17,0 10,7 14,7 11,9 13,6 12,9 10 5 22 12 SE 1018,7 11 0 0,0
11.10.2018 21:00:00 16,9 10,3 14,4 12,1 13,9 12,9 9 5 18 10 SE 1018,7 13 0 0,0
11.10.2018 20:00:00 16,0 10,4 11,9 12,9 14,3 12,9 7 4 21 11 SE 1018,6 12 0 0,0
11.10.2018 19:00:00 17,5 10,5 15,2 14,0 14,6 12,9 11 6 21 12 SE 1018,1 14 9 0,0
11.10.2018 18:00:00 17,5 10,9 15,8 15,9 14,6 12,9 11 6 26 14 ESE 1018,0 12 60 0,0
11.10.2018 17:00:00 18,5 11,1 18,6 17,9 14,4 12,9 11 6 22 12 ESE 1018,1 13 60 0,0
11.10.2018 16:00:00 18,6 11,5 19,5 18,6 13,9 12,9 11 6 27 14 SE 1018,5 14 60 0,0
11.10.2018 15:00:00 18,5 11,7 20,7 18,4 13,4 12,9 12 6 29 16 ESE 1018,7 11 60 0,0
11.10.2018 14:00:00 17,4 11,6 19,6 17,7 12,8 12,9 15 8 31 17 ESE 1019,2 7 60 0,0
11.10.2018 13:00:00 16,6 11,6 18,7 16,3 12,2 12,9 14 7 32 17 ESE 1019,9 10 60 0,0
11.10.2018 12:00:00 15,7 11,1 17,4 14,8 11,7 12,9 16 8 35 19 SE 1020,2 7 60 0,0
11.10.2018 11:00:00 15,1 11,0 16,4 13,1 11,4 12,9 17 9 31 17 ESE 1020,7 4,5 60 0,0
11.10.2018 10:00:00 14,7 11,0 15,3 11,4 11,3 12,9 16 9 31 17 SE 1020,7 6 60 0,0
11.10.2018 09:00:00 14,0 10,9 12,9 10,4 11,3 12,9 15 8 29 16 SE 1020,7 5 56 0,0
11.10.2018 08:00:00 13,6 11,0 12,1 10,0 11,4 12,9 12 6 24 13 SE 1020,5 7 0 0,0
11.10.2018 07:00:00 13,2 11,2 11,5 10,1 11,5 12,9 13 7 25 14 SE 1020,5 5 0 0,0
11.10.2018 06:00:00 13,4 11,2 12,0 10,2 11,6 12,9 13 7 25 13 ESE 1020,9 6 0 0,0

tt = temperature
td = dewpoint
tt 5cm = temperature 5cm
tt -5cm = temperature -5cm
tt -20cm = temperature -20cm
tt -100cm = temperature -100cm
ff = wind speed
fx = gusts
dd = wind direction
ppp = reduced air pressure
vv = visibility
sd = sunshine duration
rr = precipitation

Next stations